Location: *
(60.1759°S, 155.0663°W)
Time: 14:27:00
(UTC+00:00)

ALOS - Pass Details

Date: 17 September 2019
Orbit: 683 x 686 km, 97.8° (Epoch: 19 October)

Event Time Altitude Azimuth Distance (km) Brightness Sun altitude
Rises 13:10:24 0° 58° (ENE) 3,070 5.8 -23.1°
Reaches altitude 10° 13:12:53 10° 69° (ENE) 2,160 5.2 -22.8°
Maximum altitude 13:16:53 28° 126° (SE) 1,313 4.4 -22.5°
Drops below altitude 10° 13:20:54 10° 184° (S) 2,178 5.3 -22.1°
Sets 13:23:25 0° 194° (SSW) 3,101 6.0 -21.8°
